INTELSAT 905 (IS-905)

Last updated on Thu Oct 30 2025 00:02:47 GMT+0000 (Coordinated Universal Time)

1 27438U 02027A 25302.52092008 .00000108 00000+0 00000+0 0 9990 2 27438 6.1697 72.5677 0002516 143.2929 232.5917 1.00272657 49050
UTC large
Height (km)
Speed (km/s)
/
Latitude / Longitude
Inclination (degrees)
Orbital Period (minutes)
Azimuth
Elevation
Range (km)
Doppler Factor

Next 0 passes for location: London (51.5072 / 0.1276)

Sorry there are no passes over London.